Flag for Canada Weather past 2 weeks in Yarmouth County, Nova Scotia, Canada

Now
52 °F

Fog.


Feels Like: 50 °F
Forecast: 53 / 65 °F
Wind: 6 mph from Southwest

Location: Yarmouth

Current Time: Jun 30, 2015 at 2:36:48 AM

Latest Report: Jun 30, 2015 at 2:00 AM


Visibility: 0 mi

Pressure: 29.97 "Hg

Humidity: 100%

Dew point: 52 °F

Location of Yarmouth CountyLocation

Historic Weather in Yarmouth County — Graph

°F

Yarmouth County temperature yesterday

Maximum temperature yesterday: 57 °F (at 3:00 AM)
Minimum temperature yesterday: 52 °F (at 6:00 AM)
Average temperature yesterday: 54 °F

Past Weeks' High & Low Weather Summary

 TemperatureHumidityPressure
High68 °F (Jun 17, 2:00 PM)100% (Jun 16, 2:00 PM)30.24 "Hg (Jun 16, 2:00 PM)
Low46 °F (Jun 15, 6:00 AM)40% (Jun 17, 3:00 PM)29.51 "Hg (Jun 22, 1:00 AM)
Average56 °F87%29.97 "Hg
* Reported Jun 15 1:00 AM — Jun 30 1:00 AM, Yarmouth County, Weather by CustomWeather, © 2015

Note: Actual official high and low records may vary slightly from our data, if they occured in-between our weather recording intervals... More about our weather records

Advertising

Yarmouth County weather history for previous 24 hours

 ConditionsComfort  
Time TempWeatherWind HumidityBarometerVisibility
1:00 AM
Tue, Jun 30
54 °FFog.6 mph100%29.96 "Hg1 mi
12:00 AM54 °FFog.6 mph100%29.95 "Hg1 mi
11:48 PM
Mon, Jun 29
54 °FFog.6 mph100%29.94 "Hg1 mi
11:00 PM54 °FDrizzle. Fog.7 mph100%29.94 "Hg1 mi
10:00 PM54 °FDrizzle. Fog.6 mph100%29.94 "Hg1 mi
9:52 PM54 °FDrizzle. Fog.7 mph100%29.93 "Hg1 mi
9:00 PM54 °FDrizzle. Fog.3 mph100%29.92 "Hg2 mi
8:00 PM54 °FPartly sunny.6 mph94%29.92 "Hg12 mi
7:00 PM55 °FOvercast.8 mph94%29.91 "Hg12 mi
6:00 PM57 °FOvercast.6 mph88%29.90 "Hg12 mi
5:00 PM55 °FPartly sunny.12 mph88%29.90 "Hg12 mi
4:00 PM55 °FPartly sunny.12 mph94%29.90 "Hg12 mi
3:00 PM55 °FPartly sunny.13 mph88%29.88 "Hg10 mi
2:00 PM54 °FFog.14 mph94%29.88 "Hg6 mi
1:52 PM54 °FFog.12 mph94%29.88 "Hg6 mi
1:00 PM54 °FFog.14 mph94%29.87 "Hg1 mi
12:00 PM54 °FFog.16 mph94%29.84 "Hg6 mi
11:00 AM52 °FFog.17 mph100%29.82 "Hg1 mi
10:00 AM52 °FFog.16 mph100%29.80 "Hg0 mi
9:00 AM52 °FFog.16 mph100%29.76 "Hg0 mi
8:00 AM52 °FDrizzle. Fog.16 mph100%29.73 "Hg1 mi
7:00 AM52 °FDrizzle. Fog.15 mph100%29.70 "Hg1 mi
6:00 AM52 °FDrizzle. Fog.10 mph100%29.68 "Hg1 mi
5:00 AM54 °FDrizzle. Fog.10 mph100%29.67 "Hg1 mi
4:00 AM57 °FDrizzle. Fog.12 mph100%29.65 "Hg1 mi
3:47 AM57 °FDrizzle. Fog.8 mph100%29.65 "Hg2 mi
3:00 AM57 °FDrizzle. Fog.15 mph100%29.65 "Hg1 mi
2:00 AM55 °FDrizzle. Fog.15 mph100%29.66 "Hg2 mi
Weather by CustomWeather, © 2015

See weather overviewHow to use our weather pages